Time,TemperatureF,DewpointF,PressureIn,WindDirection,WindDirectionDegrees,WindSpeedMPH,WindSpeedGustMPH,Humidity,HourlyPrecipIn,Conditions,Clouds,dailyrainin,SolarRadiationWatts/m^2,SoftwareType,DateUTC
2013-05-05 00:01:00,54.9,39.5,30.08,East,88,3.5,3.5,56,0.00,CLR,,0.00,0.0,WeatherDisplay:10.37,2013-05-05 04:01:00,
2013-05-05 00:06:00,54.8,40.3,30.08,East,88,4.6,4.6,58,0.00,CLR,,0.00,0.0,WeatherDisplay:10.37,2013-05-05 04:06:00,
2013-05-05 00:11:00,54.7,39.8,30.08,East,88,3.5,3.5,57,0.00,CLR,,0.00,0.0,WeatherDisplay:10.37,2013-05-05 04:11:00,
2013-05-05 00:16:00,54.7,39.8,30.08,East,88,3.5,3.5,57,0.00,CLR,,0.00,0.0,WeatherDisplay:10.37,2013-05-05 04:16:00,
2013-05-05 00:21:00,54.7,39.8,30.08,East,88,3.5,3.5,57,0.00,CLR,,0.00,0.0,WeatherDisplay:10.37,2013-05-05 04:21:00,
2013-05-05 00:26:00,54.6,39.7,30.08,East,88,2.3,2.3,57,0.00,CLR,,0.00,0.0,WeatherDisplay:10.37,2013-05-05 04:26:00,
2013-05-05 00:31:00,54.2,40.2,30.08,East,88,3.5,3.5,59,0.00,CLR,,0.00,0.0,WeatherDisplay:10.37,2013-05-05 04:31:00,
2013-05-05 00:36:00,53.9,40.3,30.08,East,88,3.5,3.5,60,0.00,CLR,,0.00,0.0,WeatherDisplay:10.37,2013-05-05 04:36:00,
2013-05-05 00:41:00,53.5,40.4,30.08,East,88,3.5,3.5,61,0.00,CLR,,0.00,0.0,WeatherDisplay:10.37,2013-05-05 04:41:00,
2013-05-05 00:46:00,53.1,40.4,30.08,East,88,3.5,3.5,62,0.00,CLR,,0.00,0.0,WeatherDisplay:10.37,2013-05-05 04:46:00,
2013-05-05 00:51:00,52.8,40.1,30.08,East,88,3.5,3.5,62,0.00,CLR,,0.00,0.0,WeatherDisplay:10.37,2013-05-05 04:51:00,
2013-05-05 00:56:00,52.5,40.3,30.08,East,88,3.5,3.5,63,0.00,CLR,,0.00,0.0,WeatherDisplay:10.37,2013-05-05 04:56:00,
2013-05-05 01:01:00,52.3,40.5,30.08,East,88,3.5,3.5,64,0.00,CLR,,0.00,0.0,WeatherDisplay:10.37,2013-05-05 05:01:00,
2013-05-05 01:06:00,52.1,40.7,30.09,East,88,3.5,3.5,65,0.00,CLR,,0.00,0.0,WeatherDisplay:10.37,2013-05-05 05:06:00,
2013-05-05 01:11:00,52.2,40.4,30.08,East,88,3.5,3.5,64,0.00,CLR,,0.00,0.0,WeatherDisplay:10.37,2013-05-05 05:11:00,
2013-05-05 01:16:00,52.2,40.0,30.08,East,88,3.5,3.5,63,0.00,CLR,,0.00,0.0,WeatherDisplay:10.37,2013-05-05 05:16:00,
2013-05-05 01:21:00,52.3,39.7,30.08,East,88,2.3,2.3,62,0.00,CLR,,0.00,0.0,WeatherDisplay:10.37,2013-05-05 05:21:00,
2013-05-05 01:26:00,52.3,39.7,30.08,East,88,3.5,3.5,62,0.00,CLR,,0.00,0.0,WeatherDisplay:10.37,2013-05-05 05:26:00,
2013-05-05 01:31:00,52.2,40.4,30.08,East,88,3.5,3.5,64,0.00,CLR,,0.00,0.0,WeatherDisplay:10.37,2013-05-05 05:31:00,
2013-05-05 01:36:00,52.0,41.0,30.08,East,88,3.5,3.5,66,0.00,CLR,,0.00,0.0,WeatherDisplay:10.37,2013-05-05 05:36:00,
2013-05-05 01:41:00,51.7,41.5,30.08,East,88,3.5,3.5,68,0.00,CLR,,0.00,0.0,WeatherDisplay:10.37,2013-05-05 05:41:00,
2013-05-05 01:46:00,51.4,40.0,30.08,East,88,3.5,3.5,65,0.00,CLR,,0.00,0.0,WeatherDisplay:10.37,2013-05-05 05:46:00,
2013-05-05 01:51:00,51.5,39.7,30.08,East,88,3.5,3.5,64,0.00,CLR,,0.00,0.0,WeatherDisplay:10.37,2013-05-05 05:51:00,
2013-05-05 01:56:00,51.7,39.9,30.08,East,99,2.3,2.3,64,0.00,CLR,,0.00,0.0,WeatherDisplay:10.37,2013-05-05 05:56:00,
2013-05-05 02:01:00,51.9,40.1,30.08,East,99,2.3,2.3,64,0.00,CLR,,0.00,0.0,WeatherDisplay:10.37,2013-05-05 06:01:00,
2013-05-05 02:06:00,51.8,40.0,30.08,East,99,2.0,2.0,64,0.00,CLR,,0.00,0.0,WeatherDisplay:10.37,2013-05-05 06:06:00,
2013-05-05 02:11:00,51.5,41.7,30.08,East,99,2.3,2.3,69,0.00,CLR,,0.00,0.0,WeatherDisplay:10.37,2013-05-05 06:11:00,
2013-05-05 02:16:00,51.0,41.6,30.07,East,99,2.3,2.3,70,0.00,CLR,,0.00,0.0,WeatherDisplay:10.37,2013-05-05 06:16:00,
2013-05-05 02:21:00,50.6,41.2,30.08,East,99,2.3,2.3,70,0.00,CLR,,0.00,0.0,WeatherDisplay:10.37,2013-05-05 06:21:00,
2013-05-05 02:26:00,50.2,40.8,30.07,East,99,2.3,2.3,70,0.00,CLR,,0.00,0.0,WeatherDisplay:10.37,2013-05-05 06:26:00,
2013-05-05 02:31:00,49.9,40.5,30.07,East,99,2.3,2.3,70,0.00,CLR,,0.00,0.0,WeatherDisplay:10.37,2013-05-05 06:31:00,
2013-05-05 02:36:00,49.6,40.6,30.07,East,99,2.3,2.3,71,0.00,CLR,,0.00,0.0,WeatherDisplay:10.37,2013-05-05 06:36:00,
2013-05-05 02:41:00,49.3,41.0,30.07,East,99,2.3,2.3,73,0.00,CLR,,0.00,0.0,WeatherDisplay:10.37,2013-05-05 06:41:00,
2013-05-05 02:46:00,48.9,40.6,30.07,East,99,2.3,2.3,73,0.00,CLR,,0.00,0.0,WeatherDisplay:10.37,2013-05-05 06:46:00,
2013-05-05 02:51:00,48.5,40.2,30.07,East,99,1.1,1.1,73,0.00,CLR,,0.00,0.0,WeatherDisplay:10.37,2013-05-05 06:51:00,
2013-05-05 02:56:00,48.2,40.6,30.07,East,99,0.0,0.0,75,0.00,CLR,,0.00,0.0,WeatherDisplay:10.37,2013-05-05 06:56:00,
2013-05-05 03:01:00,48.0,40.5,30.07,East,99,1.1,1.1,75,0.00,CLR,,0.00,0.0,WeatherDisplay:10.37,2013-05-05 07:01:00,
2013-05-05 03:06:00,48.0,40.5,30.07,East,99,1.1,1.1,75,0.00,CLR,,0.00,0.0,WeatherDisplay:10.37,2013-05-05 07:06:00,
2013-05-05 03:11:00,47.9,40.0,30.07,East,99,2.3,2.3,74,0.00,CLR,,0.00,0.0,WeatherDisplay:10.37,2013-05-05 07:11:00,
2013-05-05 03:17:00,47.9,40.4,30.07,East,99,2.3,2.3,75,0.00,CLR,,0.00,0.0,WeatherDisplay:10.37,2013-05-05 07:17:00,
2013-05-05 03:22:00,47.7,40.5,30.07,East,99,2.3,2.3,76,0.00,CLR,,0.00,0.0,WeatherDisplay:10.37,2013-05-05 07:22:00,
2013-05-05 03:27:00,47.6,39.7,30.07,East,99,1.1,1.1,74,0.00,CLR,,0.00,0.0,WeatherDisplay:10.37,2013-05-05 07:27:00,
2013-05-05 03:32:00,47.5,40.0,30.07,East,99,2.3,2.3,75,0.00,CLR,,0.00,0.0,WeatherDisplay:10.37,2013-05-05 07:32:00,
2013-05-05 03:37:00,47.4,40.2,30.06,East,99,2.3,2.3,76,0.00,CLR,,0.00,0.0,WeatherDisplay:10.37,2013-05-05 07:37:00,
2013-05-05 03:42:00,47.3,40.5,30.06,East,99,2.3,2.3,77,0.00,CLR,,0.00,0.0,WeatherDisplay:10.37,2013-05-05 07:42:00,
2013-05-05 03:47:00,47.2,40.7,30.07,East,99,3.5,3.5,78,0.00,CLR,,0.00,0.0,WeatherDisplay:10.37,2013-05-05 07:47:00,
2013-05-05 03:52:00,47.0,40.5,30.06,East,99,3.5,3.5,78,0.00,CLR,,0.00,0.0,WeatherDisplay:10.37,2013-05-05 07:52:00,
2013-05-05 03:57:00,46.8,40.6,30.06,East,99,3.5,3.5,79,0.00,CLR,,0.00,0.0,WeatherDisplay:10.37,2013-05-05 07:57:00,
2013-05-05 04:02:00,46.6,41.1,30.06,East,99,3.5,3.5,81,0.00,CLR,,0.00,0.0,WeatherDisplay:10.37,2013-05-05 08:02:00,
2013-05-05 04:07:00,46.4,41.2,30.06,East,99,3.5,3.5,82,0.00,CLR,,0.00,0.0,WeatherDisplay:10.37,2013-05-05 08:07:00,
2013-05-05 04:12:00,46.2,41.0,30.06,East,99,2.3,2.3,82,0.00,CLR,,0.00,0.0,WeatherDisplay:10.37,2013-05-05 08:12:00,
2013-05-05 04:17:00,46.1,40.9,30.07,East,99,2.3,2.3,82,0.00,CLR,,0.00,0.0,WeatherDisplay:10.37,2013-05-05 08:17:00,
2013-05-05 04:22:00,45.9,40.7,30.07,ESE,103,2.3,2.3,82,0.00,CLR,,0.00,0.0,WeatherDisplay:10.37,2013-05-05 08:22:00,
2013-05-05 04:27:00,46.0,40.5,30.07,ESE,104,3.5,3.5,81,0.00,CLR,,0.00,0.0,WeatherDisplay:10.37,2013-05-05 08:27:00,
2013-05-05 04:32:00,46.5,41.0,30.07,ESE,104,2.3,2.3,81,0.00,CLR,,0.00,0.0,WeatherDisplay:10.37,2013-05-05 08:32:00,
2013-05-05 04:37:00,46.9,40.7,30.06,ESE,104,2.3,2.3,79,0.00,CLR,,0.00,0.0,WeatherDisplay:10.37,2013-05-05 08:37:00,
2013-05-05 04:42:00,47.4,40.9,30.06,ESE,108,3.5,3.5,78,0.00,CLR,,0.00,0.0,WeatherDisplay:10.37,2013-05-05 08:42:00,
2013-05-05 04:47:00,48.1,41.2,30.06,ESE,108,2.3,2.3,77,0.00,CLR,,0.00,0.0,WeatherDisplay:10.37,2013-05-05 08:47:00,
2013-05-05 04:52:00,48.7,41.5,30.06,ESE,116,3.5,3.5,76,0.00,CLR,,0.00,0.0,WeatherDisplay:10.37,2013-05-05 08:52:00,
2013-05-05 04:57:00,49.4,41.5,30.06,East,101,3.5,3.5,74,0.00,CLR,,0.00,0.0,WeatherDisplay:10.37,2013-05-05 08:57:00,
2013-05-05 05:02:00,50.0,41.7,30.06,ESE,116,3.5,3.5,73,0.00,CLR,,0.00,0.0,WeatherDisplay:10.37,2013-05-05 09:02:00,
2013-05-05 05:07:00,50.4,41.7,30.06,ESE,113,3.5,3.5,72,0.00,CLR,,0.00,0.0,WeatherDisplay:10.37,2013-05-05 09:07:00,
2013-05-05 05:12:00,50.7,41.6,30.07,ESE,104,3.5,3.5,71,0.00,CLR,,0.00,0.0,WeatherDisplay:10.37,2013-05-05 09:12:00,
2013-05-05 05:17:00,50.9,41.8,30.07,ESE,111,2.3,2.3,71,0.00,CLR,,0.00,0.0,WeatherDisplay:10.37,2013-05-05 09:17:00,
2013-05-05 05:22:00,51.0,41.6,30.07,ESE,111,3.5,3.5,70,0.00,CLR,,0.00,0.0,WeatherDisplay:10.37,2013-05-05 09:22:00,
2013-05-05 05:27:00,51.0,41.9,30.07,ESE,106,2.3,2.3,71,0.00,CLR,,0.00,0.0,WeatherDisplay:10.37,2013-05-05 09:27:00,
2013-05-05 05:32:00,50.9,41.5,30.07,ESE,106,2.3,2.3,70,0.00,CLR,,0.00,0.0,WeatherDisplay:10.37,2013-05-05 09:32:00,
2013-05-05 05:37:00,50.7,41.6,30.07,ESE,106,2.3,2.3,71,0.00,CLR,,0.00,0.0,WeatherDisplay:10.37,2013-05-05 09:37:00,
2013-05-05 05:42:00,50.4,41.7,30.07,ESE,106,2.3,2.3,72,0.00,CLR,,0.00,0.0,WeatherDisplay:10.37,2013-05-05 09:42:00,
2013-05-05 05:47:00,50.1,41.4,30.07,ESE,106,2.3,2.3,72,0.00,CLR,,0.00,0.0,WeatherDisplay:10.37,2013-05-05 09:47:00,
2013-05-05 05:52:00,49.9,41.6,30.07,ESE,106,3.5,3.5,73,0.00,CLR,,0.00,0.0,WeatherDisplay:10.37,2013-05-05 09:52:00,
2013-05-05 05:57:00,49.8,41.5,30.07,ESE,106,3.5,3.5,73,0.00,CLR,,0.00,0.0,WeatherDisplay:10.37,2013-05-05 09:57:00,
2013-05-05 06:02:00,49.7,41.4,30.07,ESE,106,3.5,3.5,73,0.00,CLR,,0.00,0.0,WeatherDisplay:10.37,2013-05-05 10:02:00,
2013-05-05 06:07:00,49.7,41.4,30.07,East,96,5.0,5.0,73,0.00,CLR,,0.00,0.0,WeatherDisplay:10.37,2013-05-05 10:07:00,
2013-05-05 06:12:00,49.7,41.7,30.07,East,94,4.6,4.6,74,0.00,CLR,,0.00,0.0,WeatherDisplay:10.37,2013-05-05 10:12:00,
2013-05-05 06:17:00,49.7,41.7,30.07,East,94,4.6,4.6,74,0.00,CLR,,0.00,7.0,WeatherDisplay:10.37,2013-05-05 10:17:00,
2013-05-05 06:22:00,49.8,41.8,30.08,East,90,4.6,4.6,74,0.00,CLR,,0.00,11.0,WeatherDisplay:10.37,2013-05-05 10:22:00,
2013-05-05 06:27:00,49.8,41.8,30.07,East,90,4.6,4.6,74,0.00,CLR,,0.00,11.0,WeatherDisplay:10.37,2013-05-05 10:27:00,
2013-05-05 06:32:00,49.9,41.9,30.08,East,90,3.5,3.5,74,0.00,CLR,,0.00,14.0,WeatherDisplay:10.37,2013-05-05 10:32:00,
2013-05-05 06:37:00,50.0,42.4,30.08,East,96,3.5,3.5,75,0.00,CLR,,0.00,21.0,WeatherDisplay:10.37,2013-05-05 10:37:00,
2013-05-05 06:42:00,50.0,42.4,30.08,East,92,4.6,4.6,75,0.00,CLR,,0.00,25.0,WeatherDisplay:10.37,2013-05-05 10:42:00,
2013-05-05 06:47:00,50.3,42.3,30.08,East,92,3.5,3.5,74,0.00,CLR,,0.00,28.0,WeatherDisplay:10.37,2013-05-05 10:47:00,
2013-05-05 06:52:00,50.6,43.0,30.08,East,92,2.3,2.3,75,0.00,CLR,,0.00,32.0,WeatherDisplay:10.37,2013-05-05 10:52:00,
2013-05-05 06:57:00,51.1,43.1,30.08,East,92,3.5,3.5,74,0.00,CLR,,0.00,37.0,WeatherDisplay:10.37,2013-05-05 10:57:00,
2013-05-05 07:02:00,51.6,43.2,30.08,East,92,3.5,3.5,73,0.00,CLR,,0.00,40.0,WeatherDisplay:10.37,2013-05-05 11:02:00,
2013-05-05 07:07:00,52.1,43.3,30.08,East,94,3.5,3.5,72,0.00,CLR,,0.00,44.0,WeatherDisplay:10.37,2013-05-05 11:07:00,
2013-05-05 07:12:00,52.4,44.0,30.08,East,94,3.5,3.5,73,0.00,CLR,,0.00,49.0,WeatherDisplay:10.37,2013-05-05 11:12:00,
2013-05-05 07:17:00,52.8,44.0,30.09,East,95,3.5,3.5,72,0.00,CLR,,0.00,58.0,WeatherDisplay:10.37,2013-05-05 11:17:00,
2013-05-05 07:22:00,53.5,44.7,30.09,East,100,3.5,3.5,72,0.00,CLR,,0.00,70.0,WeatherDisplay:10.37,2013-05-05 11:22:00,
2013-05-05 07:27:00,54.1,44.5,30.09,East,92,4.6,4.6,70,0.00,CLR,,0.00,91.0,WeatherDisplay:10.37,2013-05-05 11:27:00,
2013-05-05 07:32:00,54.8,44.8,30.09,SE,133,4.6,4.6,69,0.00,CLR,,0.00,113.0,WeatherDisplay:10.37,2013-05-05 11:32:00,
2013-05-05 07:37:00,55.4,45.4,30.09,ESE,110,6.9,6.9,69,0.00,CLR,,0.00,116.0,WeatherDisplay:10.37,2013-05-05 11:37:00,
2013-05-05 07:42:00,56.0,45.6,30.09,ESE,112,4.0,4.0,68,0.00,CLR,,0.00,109.0,WeatherDisplay:10.37,2013-05-05 11:42:00,
2013-05-05 07:47:00,56.4,45.2,30.09,SE,137,7.0,7.0,66,0.00,CLR,,0.00,79.0,WeatherDisplay:10.37,2013-05-05 11:47:00,
2013-05-05 07:52:00,56.9,46.1,30.09,ESE,108,3.5,3.5,67,0.00,CLR,,0.00,142.0,WeatherDisplay:10.37,2013-05-05 11:52:00,
2013-05-05 07:57:00,57.4,46.9,30.09,East,92,3.5,3.5,68,0.00,CLR,,0.00,169.0,WeatherDisplay:10.37,2013-05-05 11:57:00,
2013-05-05 08:02:00,57.9,45.8,30.09,East,86,4.6,4.6,64,0.00,OVC,,0.00,190.0,WeatherDisplay:10.37,2013-05-05 12:02:00,
2013-05-05 08:07:00,58.4,46.7,30.09,SE,131,6.9,6.9,65,0.00,OVC,,0.00,192.0,WeatherDisplay:10.37,2013-05-05 12:07:00,
2013-05-05 08:12:00,58.8,46.2,30.09,SE,132,5.0,5.0,63,0.00,OVC,,0.00,193.0,WeatherDisplay:10.37,2013-05-05 12:12:00,
2013-05-05 08:17:00,59.4,47.2,30.09,ESE,115,6.0,6.0,64,0.00,OVC,,0.00,236.0,WeatherDisplay:10.37,2013-05-05 12:17:00,
2013-05-05 08:22:00,59.9,46.4,30.09,ESE,119,4.6,4.6,61,0.00,OVC,,0.00,230.0,WeatherDisplay:10.37,2013-05-05 12:22:00,
2013-05-05 08:27:00,60.2,46.7,30.09,SSE,159,5.0,5.0,61,0.00,OVC,,0.00,202.0,WeatherDisplay:10.37,2013-05-05 12:27:00,
2013-05-05 08:32:00,60.6,46.2,30.09,SSE,161,5.0,5.0,59,0.00,OVC,,0.00,304.0,WeatherDisplay:10.37,2013-05-05 12:32:00,
2013-05-05 08:37:00,61.2,45.4,30.09,SSE,163,8.1,8.1,56,0.00,OVC,,0.00,207.0,WeatherDisplay:10.37,2013-05-05 12:37:00,
2013-05-05 08:42:00,61.5,45.7,30.09,SSE,165,9.2,9.2,56,0.00,OVC,,0.00,179.0,WeatherDisplay:10.37,2013-05-05 12:42:00,
2013-05-05 08:47:00,61.8,46.4,30.09,South,183,12.7,12.7,57,0.00,OVC,,0.00,172.0,WeatherDisplay:10.37,2013-05-05 12:47:00,
2013-05-05 08:52:00,62.0,46.1,30.09,SSE,155,12.7,12.7,56,0.00,OVC,,0.00,241.0,WeatherDisplay:10.37,2013-05-05 12:52:00,
2013-05-05 08:57:00,61.9,45.5,30.09,South,187,10.4,10.4,55,0.00,OVC,,0.00,274.0,WeatherDisplay:10.37,2013-05-05 12:57:00,
2013-05-05 09:02:00,61.9,46.0,30.09,SSE,148,6.0,6.0,56,0.00,OVC,,0.00,306.0,WeatherDisplay:10.37,2013-05-05 13:02:00,
2013-05-05 09:07:00,62.3,46.4,30.09,ESE,122,4.6,4.6,56,0.00,OVC,,0.00,359.0,WeatherDisplay:10.37,2013-05-05 13:07:00,
2013-05-05 09:12:00,62.9,47.4,30.09,SSE,165,8.1,8.1,57,0.00,OVC,,0.00,399.0,WeatherDisplay:10.37,2013-05-05 13:12:00,
2013-05-05 09:17:00,63.1,46.7,30.09,ESE,109,11.5,11.5,55,0.00,OVC,,0.00,374.0,WeatherDisplay:10.37,2013-05-05 13:17:00,
2013-05-05 09:22:00,63.2,47.2,30.09,South,179,8.1,8.1,56,0.00,OVC,,0.00,420.0,WeatherDisplay:10.37,2013-05-05 13:22:00,
2013-05-05 09:27:00,63.5,47.0,30.09,SSE,148,6.0,6.0,55,0.00,OVC,,0.00,431.0,WeatherDisplay:10.37,2013-05-05 13:27:00,
2013-05-05 09:32:00,63.7,46.2,30.09,SE,124,5.0,5.0,53,0.00,OVC,,0.00,489.0,WeatherDisplay:10.37,2013-05-05 13:32:00,
2013-05-05 09:37:00,63.9,46.4,30.09,SSE,162,8.1,8.1,53,0.00,OVC,,0.00,403.0,WeatherDisplay:10.37,2013-05-05 13:37:00,
2013-05-05 09:42:00,64.0,46.0,30.09,ESE,118,8.1,8.1,52,0.00,OVC,,0.00,387.0,WeatherDisplay:10.37,2013-05-05 13:42:00,
2013-05-05 09:47:00,64.3,46.8,30.09,ESE,111,4.6,4.6,53,0.00,OVC,,0.00,388.0,WeatherDisplay:10.37,2013-05-05 13:47:00,
2013-05-05 09:52:00,64.5,47.0,30.09,SSW,199,5.8,5.8,53,0.00,OVC,,0.00,448.0,WeatherDisplay:10.37,2013-05-05 13:52:00,
2013-05-05 09:57:00,64.7,46.7,30.09,South,182,10.4,10.4,52,0.00,OVC,,0.00,441.0,WeatherDisplay:10.37,2013-05-05 13:57:00,
2013-05-05 10:02:00,64.8,46.2,30.09,SSE,163,5.8,5.8,51,0.00,OVC,,0.00,496.0,WeatherDisplay:10.37,2013-05-05 14:02:00,
2013-05-05 10:07:00,65.0,46.9,30.09,ESE,111,7.0,7.0,52,0.00,OVC,,0.00,506.0,WeatherDisplay:10.37,2013-05-05 14:07:00,
2013-05-05 10:12:00,64.9,46.8,30.09,ESE,115,5.0,5.0,52,0.00,OVC,,0.00,381.0,WeatherDisplay:10.37,2013-05-05 14:12:00,
2013-05-05 10:17:00,64.9,46.8,30.09,SE,134,8.1,8.1,52,0.00,OVC,,0.00,517.0,WeatherDisplay:10.37,2013-05-05 14:17:00,
2013-05-05 10:22:00,65.1,47.5,30.09,SSE,153,5.0,5.0,53,0.00,OVC,,0.00,490.0,WeatherDisplay:10.37,2013-05-05 14:22:00,
2013-05-05 10:27:00,65.4,47.8,30.09,SSE,164,6.9,6.9,53,0.00,OVC,,0.00,541.0,WeatherDisplay:10.37,2013-05-05 14:27:00,
2013-05-05 10:32:00,65.6,46.5,30.09,ESE,113,8.1,8.1,50,0.00,OVC,,0.00,531.0,WeatherDisplay:10.37,2013-05-05 14:32:00,
2013-05-05 10:37:00,65.8,47.7,30.09,South,180,4.6,4.6,52,0.00,OVC,,0.00,508.0,WeatherDisplay:10.37,2013-05-05 14:37:00,
2013-05-05 10:42:00,66.0,46.8,30.09,South,181,8.1,8.1,50,0.00,OVC,,0.00,570.0,WeatherDisplay:10.37,2013-05-05 14:42:00,
2013-05-05 10:47:00,66.2,48.6,30.09,South,178,4.6,4.6,53,0.00,OVC,,0.00,533.0,WeatherDisplay:10.37,2013-05-05 14:47:00,
2013-05-05 10:52:00,66.2,47.5,30.09,SSE,149,9.2,9.2,51,0.00,OVC,,0.00,533.0,WeatherDisplay:10.37,2013-05-05 14:52:00,
2013-05-05 10:57:00,66.2,49.1,30.09,SSE,164,5.8,5.8,54,0.00,OVC,,0.00,533.0,WeatherDisplay:10.37,2013-05-05 14:57:00,
2013-05-05 11:02:00,66.5,49.8,30.09,SE,143,4.0,4.0,55,0.00,OVC,,0.00,547.0,WeatherDisplay:10.37,2013-05-05 15:02:00,
2013-05-05 11:07:00,66.8,48.1,30.09,East,98,6.9,6.9,51,0.00,OVC,,0.00,504.0,WeatherDisplay:10.37,2013-05-05 15:07:00,
2013-05-05 11:12:00,66.5,47.3,30.09,SE,137,8.1,8.1,50,0.00,OVC,,0.00,504.0,WeatherDisplay:10.37,2013-05-05 15:12:00,
2013-05-05 11:17:00,66.3,47.6,30.09,SE,130,6.0,6.0,51,0.00,OVC,,0.00,510.0,WeatherDisplay:10.37,2013-05-05 15:17:00,
2013-05-05 11:22:00,66.3,46.0,30.09,SSE,155,6.9,6.9,48,0.00,OVC,,0.00,552.0,WeatherDisplay:10.37,2013-05-05 15:22:00,
2013-05-05 11:27:00,66.6,47.9,30.09,SSE,167,5.8,5.8,51,0.00,OVC,,0.00,585.0,WeatherDisplay:10.37,2013-05-05 15:27:00,
2013-05-05 11:32:00,66.9,47.1,30.09,SE,142,10.4,10.4,49,0.00,CLR,,0.00,744.0,WeatherDisplay:10.37,2013-05-05 15:32:00,
2013-05-05 11:37:00,67.3,47.5,30.09,East,100,6.0,6.0,49,0.00,CLR,,0.00,758.0,WeatherDisplay:10.37,2013-05-05 15:37:00,
2013-05-05 11:42:00,67.7,47.3,30.08,South,184,8.0,8.0,48,0.00,CLR,,0.00,761.0,WeatherDisplay:10.37,2013-05-05 15:42:00,
2013-05-05 11:47:00,68.0,44.0,30.08,East,90,11.5,11.5,42,0.00,CLR,,0.00,698.0,WeatherDisplay:10.37,2013-05-05 15:47:00,
2013-05-05 11:52:00,68.1,45.9,30.08,SSE,164,7.0,7.0,45,0.00,CLR,,0.00,657.0,WeatherDisplay:10.37,2013-05-05 15:52:00,
2013-05-05 11:57:00,68.3,45.5,30.08,East,100,5.0,5.0,44,0.00,CLR,,0.00,587.0,WeatherDisplay:10.37,2013-05-05 15:57:00,
2013-05-05 12:02:00,68.3,44.9,30.08,SE,124,8.1,8.1,43,0.00,CLR,,0.00,691.0,WeatherDisplay:10.37,2013-05-05 16:02:00,
2013-05-05 12:07:00,68.4,45.0,30.08,East,86,6.9,6.9,43,0.00,CLR,,0.00,501.0,WeatherDisplay:10.37,2013-05-05 16:07:00,
2013-05-05 12:12:00,68.5,45.7,30.08,SE,135,8.1,8.1,44,0.00,CLR,,0.00,708.0,WeatherDisplay:10.37,2013-05-05 16:12:00,
2013-05-05 12:17:00,68.6,46.4,30.08,SSE,158,8.1,8.1,45,0.00,CLR,,0.00,733.0,WeatherDisplay:10.37,2013-05-05 16:17:00,
2013-05-05 12:22:00,69.0,44.3,30.08,SSE,157,8.1,8.1,41,0.00,CLR,,0.00,740.0,WeatherDisplay:10.37,2013-05-05 16:22:00,
2013-05-05 12:27:00,69.0,44.9,30.08,SSE,149,6.9,6.9,42,0.00,CLR,,0.00,745.0,WeatherDisplay:10.37,2013-05-05 16:27:00,
2013-05-05 12:32:00,69.3,44.6,30.08,SSE,160,6.9,6.9,41,0.00,CLR,,0.00,749.0,WeatherDisplay:10.37,2013-05-05 16:32:00,
2013-05-05 12:37:00,69.5,44.8,30.08,SSE,162,6.9,6.9,41,0.00,CLR,,0.00,758.0,WeatherDisplay:10.37,2013-05-05 16:37:00,
2013-05-05 12:42:00,69.8,43.0,30.08,SE,146,8.1,8.1,38,0.00,CLR,,0.00,782.0,WeatherDisplay:10.37,2013-05-05 16:42:00,
2013-05-05 12:47:00,69.8,42.3,30.08,SSE,158,8.1,8.1,37,0.00,CLR,,0.00,817.0,WeatherDisplay:10.37,2013-05-05 16:47:00,
2013-05-05 12:52:00,69.7,40.1,30.08,SE,131,10.4,10.4,34,0.00,CLR,,0.00,819.0,WeatherDisplay:10.37,2013-05-05 16:52:00,
2013-05-05 12:57:00,69.9,41.7,30.08,SE,144,10.4,10.4,36,0.00,CLR,,0.00,793.0,WeatherDisplay:10.37,2013-05-05 16:57:00,
2013-05-05 13:02:00,69.7,42.3,30.07,SSE,162,6.9,6.9,37,0.00,CLR,,0.00,768.0,WeatherDisplay:10.37,2013-05-05 17:02:00,
2013-05-05 13:07:00,69.9,37.9,30.07,ESE,112,8.1,8.1,31,0.00,CLR,,0.00,751.0,WeatherDisplay:10.37,2013-05-05 17:07:00,
2013-05-05 13:12:00,69.8,40.2,30.07,ESE,107,11.5,11.5,34,0.00,CLR,,0.00,821.0,WeatherDisplay:10.37,2013-05-05 17:12:00,
2013-05-05 13:17:00,69.8,41.6,30.07,East,88,6.9,6.9,36,0.00,CLR,,0.00,875.0,WeatherDisplay:10.37,2013-05-05 17:17:00,
2013-05-05 13:23:00,70.2,38.9,30.07,SE,127,9.2,9.2,32,0.00,CLR,,0.00,867.0,WeatherDisplay:10.37,2013-05-05 17:23:00,
2013-05-05 13:28:00,70.3,39.0,30.07,East,96,9.2,9.2,32,0.00,CLR,,0.00,896.0,WeatherDisplay:10.37,2013-05-05 17:28:00,
2013-05-05 13:33:00,70.1,38.0,30.06,SE,124,7.0,7.3,31,0.00,CLR,,0.00,891.0,WeatherDisplay:10.37,2013-05-05 17:33:00,
2013-05-05 13:38:00,70.3,39.0,30.07,ESE,107,10.4,10.4,32,0.00,CLR,,0.00,930.0,WeatherDisplay:10.37,2013-05-05 17:38:00,
2013-05-05 13:43:00,70.3,37.4,30.07,ESE,105,18.4,18.4,30,0.00,CLR,,0.00,837.0,WeatherDisplay:10.37,2013-05-05 17:43:00,
2013-05-05 13:48:00,70.1,34.5,30.07,ESE,117,16.1,16.1,27,0.00,CLR,,0.00,902.0,WeatherDisplay:10.37,2013-05-05 17:48:00,
2013-05-05 13:53:00,70.2,34.6,30.07,East,81,17.3,17.3,27,0.00,CLR,,0.00,889.0,WeatherDisplay:10.37,2013-05-05 17:53:00,
2013-05-05 13:58:00,70.1,34.5,30.06,SE,136,8.1,8.1,27,0.00,CLR,,0.00,914.0,WeatherDisplay:10.37,2013-05-05 17:58:00,
2013-05-05 14:03:00,70.3,36.5,30.06,ENE,74,17.3,17.3,29,0.00,CLR,,0.00,902.0,WeatherDisplay:10.37,2013-05-05 18:03:00,
2013-05-05 14:08:00,70.3,35.6,30.06,East,87,8.1,8.1,28,0.00,CLR,,0.00,947.0,WeatherDisplay:10.37,2013-05-05 18:08:00,
2013-05-05 14:13:00,70.5,36.7,30.05,ENE,65,13.8,13.8,29,0.00,CLR,,0.00,912.0,WeatherDisplay:10.37,2013-05-05 18:13:00,
2013-05-05 14:18:00,70.3,39.0,30.06,ESE,109,11.5,11.5,32,0.00,CLR,,0.00,851.0,WeatherDisplay:10.37,2013-05-05 18:18:00,
2013-05-05 14:23:00,70.6,36.8,30.05,NE,50,11.5,11.5,29,0.00,CLR,,0.00,904.0,WeatherDisplay:10.37,2013-05-05 18:23:00,
2013-05-05 14:28:00,70.8,36.1,30.05,East,92,16.1,16.1,28,0.00,CLR,,0.00,912.0,WeatherDisplay:10.37,2013-05-05 18:28:00,
2013-05-05 14:33:00,70.6,31.0,30.05,ENE,63,16.1,16.1,23,0.00,CLR,,0.00,947.0,WeatherDisplay:10.37,2013-05-05 18:33:00,
2013-05-05 14:38:00,70.4,33.9,30.05,ESE,111,17.3,17.3,26,0.00,CLR,,0.00,1005.0,WeatherDisplay:10.37,2013-05-05 18:38:00,
2013-05-05 14:43:00,70.6,33.0,30.05,ENE,74,15.0,15.0,25,0.00,CLR,,0.00,974.0,WeatherDisplay:10.37,2013-05-05 18:43:00,
2013-05-05 14:48:00,70.8,34.2,30.05,SE,129,11.5,11.5,26,0.00,CLR,,0.00,965.0,WeatherDisplay:10.37,2013-05-05 18:48:00,
2013-05-05 14:53:00,71.1,34.5,30.05,SE,126,9.2,9.2,26,0.00,CLR,,0.00,946.0,WeatherDisplay:10.37,2013-05-05 18:53:00,
2013-05-05 14:58:00,71.7,36.8,30.06,ESE,102,11.5,11.5,28,0.00,CLR,,0.00,932.0,WeatherDisplay:10.37,2013-05-05 18:58:00,
2013-05-05 15:03:00,71.7,37.7,30.05,SE,124,8.1,8.1,29,0.00,CLR,,0.00,909.0,WeatherDisplay:10.37,2013-05-05 19:03:00,
2013-05-05 15:08:00,71.9,37.0,30.05,East,96,11.5,11.5,28,0.00,CLR,,0.00,891.0,WeatherDisplay:10.37,2013-05-05 19:08:00,
2013-05-05 15:13:00,72.1,35.3,30.05,East,92,12.7,12.7,26,0.00,CLR,,0.00,916.0,WeatherDisplay:10.37,2013-05-05 19:13:00,
2013-05-05 15:18:00,72.2,36.3,30.05,East,90,18.0,18.0,27,0.00,CLR,,0.00,893.0,WeatherDisplay:10.37,2013-05-05 19:18:00,
2013-05-05 15:23:00,71.9,34.1,30.05,ENE,78,12.7,12.7,25,0.00,CLR,,0.00,909.0,WeatherDisplay:10.37,2013-05-05 19:23:00,
2013-05-05 15:28:00,71.8,33.0,30.05,ESE,105,9.2,9.2,24,0.00,CLR,,0.00,919.0,WeatherDisplay:10.37,2013-05-05 19:28:00,
2013-05-05 15:33:00,71.6,35.8,30.04,East,99,11.5,11.5,27,0.00,CLR,,0.00,907.0,WeatherDisplay:10.37,2013-05-05 19:33:00,
2013-05-05 15:38:00,71.9,37.0,30.04,East,79,13.0,13.0,28,0.00,CLR,,0.00,896.0,WeatherDisplay:10.37,2013-05-05 19:38:00,
2013-05-05 15:43:00,71.8,36.9,30.04,ESE,114,8.1,8.1,28,0.00,CLR,,0.00,886.0,WeatherDisplay:10.37,2013-05-05 19:43:00,
2013-05-05 15:48:00,72.0,32.1,30.04,ESE,106,11.5,11.5,23,0.00,CLR,,0.00,886.0,WeatherDisplay:10.37,2013-05-05 19:48:00,
2013-05-05 15:53:00,71.9,32.1,30.04,East,97,13.8,13.8,23,0.00,CLR,,0.00,881.0,WeatherDisplay:10.37,2013-05-05 19:53:00,
2013-05-05 15:58:00,71.9,33.1,30.04,ESE,119,11.0,11.0,24,0.00,CLR,,0.00,874.0,WeatherDisplay:10.37,2013-05-05 19:58:00,
2013-05-05 16:03:00,72.1,32.2,30.03,ESE,118,13.8,13.8,23,0.00,CLR,,0.00,856.0,WeatherDisplay:10.37,2013-05-05 20:03:00,
2013-05-05 16:08:00,72.1,32.2,30.03,ENE,77,13.8,13.8,23,0.00,CLR,,0.00,846.0,WeatherDisplay:10.37,2013-05-05 20:08:00,
2013-05-05 16:13:00,72.0,34.2,30.03,ENE,61,11.5,11.5,25,0.00,CLR,,0.00,819.0,WeatherDisplay:10.37,2013-05-05 20:13:00,
2013-05-05 16:18:00,72.1,35.3,30.03,ESE,113,10.4,10.4,26,0.00,CLR,,0.00,717.0,WeatherDisplay:10.37,2013-05-05 20:18:00,
2013-05-05 16:23:00,72.2,33.4,30.03,ESE,115,13.8,13.8,24,0.00,CLR,,0.00,800.0,WeatherDisplay:10.37,2013-05-05 20:23:00,
2013-05-05 16:28:00,72.1,33.3,30.03,SE,132,12.7,12.7,24,0.00,FEW,,0.00,717.0,WeatherDisplay:10.37,2013-05-05 20:28:00,
2013-05-05 16:33:00,72.1,36.3,30.03,SE,138,11.5,11.5,27,0.00,CLR,,0.00,766.0,WeatherDisplay:10.37,2013-05-05 20:33:00,
2013-05-05 16:38:00,72.3,36.4,30.03,SSE,159,12.7,12.7,27,0.00,FEW,,0.00,735.0,WeatherDisplay:10.37,2013-05-05 20:38:00,
2013-05-05 16:43:00,72.5,35.6,30.03,SE,129,11.5,11.5,26,0.00,CLR,,0.00,773.0,WeatherDisplay:10.37,2013-05-05 20:43:00,
2013-05-05 16:48:00,72.9,35.0,30.02,ESE,108,10.4,10.4,25,0.00,FEW,,0.00,765.0,WeatherDisplay:10.37,2013-05-05 20:48:00,
2013-05-05 16:53:00,73.0,33.0,30.02,SE,135,16.1,16.1,23,0.00,FEW,,0.00,719.0,WeatherDisplay:10.37,2013-05-05 20:53:00,
2013-05-05 16:58:00,72.8,32.8,30.02,ESE,107,12.7,12.7,23,0.00,FEW,,0.00,752.0,WeatherDisplay:10.37,2013-05-05 20:58:00,
2013-05-05 17:03:00,72.8,34.9,30.02,SE,140,11.5,11.5,25,0.00,FEW,,0.00,754.0,WeatherDisplay:10.37,2013-05-05 21:03:00,
2013-05-05 17:08:00,72.9,35.0,30.02,SSE,147,11.5,11.5,25,0.00,FEW,,0.00,763.0,WeatherDisplay:10.37,2013-05-05 21:08:00,
2013-05-05 17:13:00,72.9,36.9,30.02,SE,138,10.4,10.4,27,0.00,SCT,,0.00,631.0,WeatherDisplay:10.37,2013-05-05 21:13:00,
2013-05-05 17:18:00,72.8,33.9,30.01,SE,132,11.5,11.5,24,0.00,SCT,,0.00,652.0,WeatherDisplay:10.37,2013-05-05 21:18:00,
2013-05-05 17:23:00,72.4,32.5,30.02,SE,134,11.5,11.5,23,0.00,BKN,,0.00,469.0,WeatherDisplay:10.37,2013-05-05 21:23:00,
2013-05-05 17:28:00,71.8,34.1,30.01,ESE,109,10.4,10.4,25,0.00,BKN,,0.00,364.0,WeatherDisplay:10.37,2013-05-05 21:28:00,
2013-05-05 17:33:00,71.5,35.7,30.01,East,81,7.0,7.0,27,0.00,BKN,,0.00,279.0,WeatherDisplay:10.37,2013-05-05 21:33:00,
2013-05-05 17:38:00,71.0,31.3,30.02,SSE,147,8.1,8.1,23,0.00,BKN,,0.00,255.0,WeatherDisplay:10.37,2013-05-05 21:38:00,
2013-05-05 17:43:00,70.6,32.0,30.02,SE,128,8.0,8.0,24,0.00,BKN,,0.00,243.0,WeatherDisplay:10.37,2013-05-05 21:43:00,
2013-05-05 17:48:00,70.4,34.8,30.02,SE,146,4.0,4.0,27,0.00,BKN,,0.00,360.0,WeatherDisplay:10.37,2013-05-05 21:48:00,
2013-05-05 17:53:00,70.5,33.9,30.02,ESE,117,6.9,6.9,26,0.00,BKN,,0.00,397.0,WeatherDisplay:10.37,2013-05-05 21:53:00,
2013-05-05 17:58:00,70.8,31.1,30.01,SSE,158,11.5,11.5,23,0.00,BKN,,0.00,476.0,WeatherDisplay:10.37,2013-05-05 21:58:00,
2013-05-05 18:03:00,71.2,34.5,30.02,SSE,159,10.0,10.0,26,0.00,BKN,,0.00,489.0,WeatherDisplay:10.37,2013-05-05 22:03:00,
2013-05-05 18:08:00,71.5,31.7,30.02,East,95,11.5,11.5,23,0.00,BKN,,0.00,443.0,WeatherDisplay:10.37,2013-05-05 22:08:00,
2013-05-05 18:13:00,71.6,31.8,30.02,East,92,12.7,12.7,23,0.00,SCT,,0.00,573.0,WeatherDisplay:10.37,2013-05-05 22:13:00,
2013-05-05 18:18:00,71.7,31.9,30.02,ESE,111,8.1,8.1,23,0.00,BKN,,0.00,517.0,WeatherDisplay:10.37,2013-05-05 22:18:00,
2013-05-05 18:23:00,71.6,30.7,30.02,SE,140,4.6,4.6,22,0.00,BKN,,0.00,320.0,WeatherDisplay:10.37,2013-05-05 22:23:00,
2013-05-05 18:28:00,71.2,31.5,30.02,ESE,114,9.2,9.2,23,0.00,BKN,,0.00,265.0,WeatherDisplay:10.37,2013-05-05 22:28:00,
2013-05-05 18:33:00,70.7,31.1,30.02,ESE,103,10.4,10.4,23,0.00,BKN,,0.00,265.0,WeatherDisplay:10.37,2013-05-05 22:33:00,
2013-05-05 18:38:00,70.4,34.8,30.02,ESE,104,7.0,7.0,27,0.00,BKN,,0.00,227.0,WeatherDisplay:10.37,2013-05-05 22:38:00,
2013-05-05 18:43:00,70.2,34.6,30.02,ESE,108,9.2,9.2,27,0.00,BKN,,0.00,206.0,WeatherDisplay:10.37,2013-05-05 22:43:00,
2013-05-05 18:48:00,70.0,34.5,30.02,ESE,114,4.0,4.0,27,0.00,BKN,,0.00,176.0,WeatherDisplay:10.37,2013-05-05 22:48:00,
2013-05-05 18:53:00,69.8,36.1,30.02,SE,132,8.1,8.1,29,0.00,BKN,,0.00,167.0,WeatherDisplay:10.37,2013-05-05 22:53:00,
2013-05-05 18:58:00,69.3,33.9,30.02,SE,146,5.0,5.0,27,0.00,BKN,,0.00,128.0,WeatherDisplay:10.37,2013-05-05 22:58:00,
2013-05-05 19:03:00,69.0,33.6,30.02,ESE,119,9.2,9.2,27,0.00,BKN,,0.00,121.0,WeatherDisplay:10.37,2013-05-05 23:03:00,
2013-05-05 19:08:00,68.7,34.3,30.02,SE,140,11.5,11.5,28,0.00,BKN,,0.00,113.0,WeatherDisplay:10.37,2013-05-05 23:08:00,
2013-05-05 19:13:00,68.5,35.0,30.02,SE,129,4.6,4.6,29,0.00,BKN,,0.00,98.0,WeatherDisplay:10.37,2013-05-05 23:13:00,
2013-05-05 19:18:00,68.2,32.9,30.02,SSE,155,11.5,11.5,27,0.00,BKN,,0.00,90.0,WeatherDisplay:10.37,2013-05-05 23:18:00,
2013-05-05 19:23:00,68.1,33.7,30.02,East,88,6.9,6.9,28,0.00,BKN,,0.00,83.0,WeatherDisplay:10.37,2013-05-05 23:23:00,
2013-05-05 19:28:00,68.0,35.4,30.02,ESE,112,3.5,3.5,30,0.00,BKN,,0.00,74.0,WeatherDisplay:10.37,2013-05-05 23:28:00,
2013-05-05 19:33:00,67.7,35.1,30.02,East,92,5.0,5.0,30,0.00,BKN,,0.00,67.0,WeatherDisplay:10.37,2013-05-05 23:33:00,
2013-05-05 19:38:00,67.5,35.0,30.02,SSE,150,3.5,3.5,30,0.00,BKN,,0.00,62.0,WeatherDisplay:10.37,2013-05-05 23:38:00,
2013-05-05 19:43:00,67.2,35.5,30.02,SE,130,3.5,3.5,31,0.00,BKN,,0.00,56.0,WeatherDisplay:10.37,2013-05-05 23:43:00,
2013-05-05 19:48:00,67.0,35.3,30.02,SE,132,3.5,3.5,31,0.00,CLR,,0.00,53.0,WeatherDisplay:10.37,2013-05-05 23:48:00,
2013-05-05 19:53:00,66.7,35.9,30.03,SE,140,3.5,3.5,32,0.00,CLR,,0.00,47.0,WeatherDisplay:10.37,2013-05-05 23:53:00,
2013-05-05 19:58:00,66.5,35.7,30.02,SE,130,3.5,3.5,32,0.00,CLR,,0.00,44.0,WeatherDisplay:10.37,2013-05-05 23:58:00,
2013-05-05 20:03:00,66.3,36.3,30.02,SE,138,4.6,4.6,33,0.00,CLR,,0.00,39.0,WeatherDisplay:10.37,2013-05-06 00:03:00,
2013-05-05 20:08:00,66.1,35.4,30.02,ESE,113,9.2,9.2,32,0.00,CLR,,0.00,32.0,WeatherDisplay:10.37,2013-05-06 00:08:00,
2013-05-05 20:13:00,66.1,35.4,30.02,ESE,115,3.5,3.5,32,0.00,CLR,,0.00,28.0,WeatherDisplay:10.37,2013-05-06 00:13:00,
2013-05-05 20:18:00,65.9,36.0,30.02,ESE,116,3.0,3.0,33,0.00,CLR,,0.00,21.0,WeatherDisplay:10.37,2013-05-06 00:18:00,
2013-05-05 20:23:00,65.7,36.5,30.02,ESE,116,3.5,3.5,34,0.00,CLR,,0.00,16.0,WeatherDisplay:10.37,2013-05-06 00:23:00,
2013-05-05 20:28:00,65.4,35.5,30.02,ESE,108,3.5,3.5,33,0.00,CLR,,0.00,11.0,WeatherDisplay:10.37,2013-05-06 00:28:00,
2013-05-05 20:33:00,65.2,36.8,30.02,ESE,108,3.0,3.0,35,0.00,CLR,,0.00,7.0,WeatherDisplay:10.37,2013-05-06 00:33:00,
2013-05-05 20:38:00,64.7,35.7,30.02,ESE,108,3.5,3.5,34,0.00,CLR,,0.00,0.0,WeatherDisplay:10.37,2013-05-06 00:38:00,
2013-05-05 20:43:00,64.2,36.0,30.02,ESE,108,3.0,3.0,35,0.00,CLR,,0.00,0.0,WeatherDisplay:10.37,2013-05-06 00:43:00,
2013-05-05 20:48:00,63.6,35.4,30.02,ESE,108,1.1,1.1,35,0.00,CLR,,0.00,0.0,WeatherDisplay:10.37,2013-05-06 00:48:00,
2013-05-05 20:53:00,63.1,35.0,30.02,ESE,108,1.1,0.0,35,0.00,CLR,,0.00,0.0,WeatherDisplay:10.37,2013-05-06 00:53:00,
2013-05-05 20:58:00,62.5,35.2,30.03,ESE,108,1.1,1.1,36,0.00,CLR,,0.00,0.0,WeatherDisplay:10.37,2013-05-06 00:58:00,
2013-05-05 21:03:00,62.0,36.1,30.03,ESE,108,1.1,1.1,38,0.00,CLR,,0.00,0.0,WeatherDisplay:10.37,2013-05-06 01:03:00,
2013-05-05 21:08:00,61.3,36.8,30.03,ESE,108,0.0,0.0,40,0.00,CLR,,0.00,0.0,WeatherDisplay:10.37,2013-05-06 01:08:00,
2013-05-05 21:13:00,60.7,37.5,30.03,ESE,108,1.1,1.1,42,0.00,CLR,,0.00,0.0,WeatherDisplay:10.37,2013-05-06 01:13:00,
2013-05-05 21:18:00,60.0,37.4,30.03,ESE,108,1.1,0.0,43,0.00,CLR,,0.00,0.0,WeatherDisplay:10.37,2013-05-06 01:18:00,
2013-05-05 21:23:00,59.3,36.8,30.03,ESE,108,0.0,0.0,43,0.00,CLR,,0.00,0.0,WeatherDisplay:10.37,2013-05-06 01:23:00,
2013-05-05 21:28:00,58.7,36.8,30.03,ESE,108,0.0,0.0,44,0.00,CLR,,0.00,0.0,WeatherDisplay:10.37,2013-05-06 01:28:00,
2013-05-05 21:33:00,58.1,38.0,30.04,ENE,60,3.5,3.7,47,0.00,CLR,,0.00,0.0,WeatherDisplay:10.37,2013-05-06 01:33:00,
2013-05-05 21:38:00,57.3,39.8,30.03,ENE,73,3.5,3.5,52,0.00,CLR,,0.00,0.0,WeatherDisplay:10.37,2013-05-06 01:38:00,
2013-05-05 21:43:00,57.4,38.9,30.03,ENE,69,6.9,6.9,50,0.00,CLR,,0.00,0.0,WeatherDisplay:10.37,2013-05-06 01:43:00,
2013-05-05 21:48:00,58.6,40.0,30.03,ENE,68,6.9,6.9,50,0.00,CLR,,0.00,0.0,WeatherDisplay:10.37,2013-05-06 01:48:00,
2013-05-05 21:53:00,59.4,39.7,30.04,ENE,74,3.5,3.5,48,0.00,CLR,,0.00,0.0,WeatherDisplay:10.37,2013-05-06 01:53:00,
2013-05-05 21:58:00,59.8,40.1,30.03,ENE,67,5.0,5.0,48,0.00,CLR,,0.00,0.0,WeatherDisplay:10.37,2013-05-06 01:58:00,
2013-05-05 22:03:00,59.9,40.7,30.04,ENE,78,6.9,6.9,49,0.00,CLR,,0.00,0.0,WeatherDisplay:10.37,2013-05-06 02:03:00,
2013-05-05 22:08:00,59.8,41.1,30.04,ENE,75,6.9,6.9,50,0.00,CLR,,0.00,0.0,WeatherDisplay:10.37,2013-05-06 02:08:00,
2013-05-05 22:13:00,59.7,41.5,30.04,ENE,78,8.1,8.1,51,0.00,CLR,,0.00,0.0,WeatherDisplay:10.37,2013-05-06 02:13:00,
2013-05-05 22:18:00,59.5,41.3,30.04,East,92,6.0,6.0,51,0.00,CLR,,0.00,0.0,WeatherDisplay:10.37,2013-05-06 02:18:00,
2013-05-05 22:23:00,59.1,41.5,30.04,ENE,77,5.8,5.8,52,0.00,CLR,,0.00,0.0,WeatherDisplay:10.37,2013-05-06 02:23:00,
2013-05-05 22:28:00,58.9,41.8,30.04,ENE,74,5.0,5.0,53,0.00,CLR,,0.00,0.0,WeatherDisplay:10.37,2013-05-06 02:28:00,
2013-05-05 22:33:00,58.7,41.6,30.04,ENE,77,5.8,5.8,53,0.00,CLR,,0.00,0.0,WeatherDisplay:10.37,2013-05-06 02:33:00,
2013-05-05 22:38:00,58.7,42.1,30.04,East,79,4.6,4.6,54,0.00,CLR,,0.00,0.0,WeatherDisplay:10.37,2013-05-06 02:38:00,
2013-05-05 22:43:00,58.4,41.8,30.04,ENE,77,4.0,4.4,54,0.00,CLR,,0.00,0.0,WeatherDisplay:10.37,2013-05-06 02:43:00,
2013-05-05 22:48:00,58.2,41.6,30.04,ENE,77,5.0,5.0,54,0.00,CLR,,0.00,0.0,WeatherDisplay:10.37,2013-05-06 02:48:00,
2013-05-05 22:53:00,57.8,41.7,30.04,ENE,78,3.5,3.5,55,0.00,CLR,,0.00,0.0,WeatherDisplay:10.37,2013-05-06 02:53:00,
2013-05-05 22:58:00,57.6,42.0,30.04,ENE,78,3.5,3.5,56,0.00,CLR,,0.00,0.0,WeatherDisplay:10.37,2013-05-06 02:58:00,
2013-05-05 23:03:00,57.2,42.1,30.04,East,81,2.3,2.3,57,0.00,CLR,,0.00,0.0,WeatherDisplay:10.37,2013-05-06 03:03:00,
2013-05-05 23:08:00,56.8,41.7,30.04,East,81,3.5,3.5,57,0.00,CLR,,0.00,0.0,WeatherDisplay:10.37,2013-05-06 03:08:00,
2013-05-05 23:13:00,56.4,41.8,30.04,East,80,2.3,2.3,58,0.00,CLR,,0.00,0.0,WeatherDisplay:10.37,2013-05-06 03:13:00,
2013-05-05 23:18:00,55.9,41.3,30.04,East,80,2.3,2.3,58,0.00,CLR,,0.00,0.0,WeatherDisplay:10.37,2013-05-06 03:18:00,
2013-05-05 23:23:00,55.4,41.3,30.04,East,80,3.0,3.0,59,0.00,CLR,,0.00,0.0,WeatherDisplay:10.37,2013-05-06 03:23:00,
2013-05-05 23:28:00,54.9,41.7,30.04,East,93,3.5,3.5,61,0.00,CLR,,0.00,0.0,WeatherDisplay:10.37,2013-05-06 03:28:00,
2013-05-05 23:34:00,54.5,41.3,30.04,East,93,3.5,3.5,61,0.00,CLR,,0.00,0.0,WeatherDisplay:10.37,2013-05-06 03:34:00,
2013-05-05 23:39:00,54.1,41.8,30.04,East,93,2.3,2.3,63,0.00,CLR,,0.00,0.0,WeatherDisplay:10.37,2013-05-06 03:39:00,
2013-05-05 23:44:00,53.8,41.9,30.03,East,92,3.5,3.5,64,0.00,CLR,,0.00,0.0,WeatherDisplay:10.37,2013-05-06 03:44:00,
2013-05-05 23:49:00,53.5,41.6,30.03,East,92,2.3,2.3,64,0.00,CLR,,0.00,0.0,WeatherDisplay:10.37,2013-05-06 03:49:00,
2013-05-05 23:54:00,53.2,40.9,30.04,East,92,2.3,2.3,63,0.00,CLR,,0.00,0.0,WeatherDisplay:10.37,2013-05-06 03:54:00,
2013-05-05 23:59:00,52.8,41.0,30.03,East,92,2.3,2.3,64,0.00,CLR,,0.00,0.0,WeatherDisplay:10.37,2013-05-06 03:59:00,